Year,Month,Day,Hour,Minute,Value (Times are PST for temperature in C)
2014,07,19,00,00,19.80
2014,07,19,00,01,19.80
2014,07,19,00,02,19.70
2014,07,19,00,03,19.70
2014,07,19,00,04,19.70
2014,07,19,00,05,19.70
2014,07,19,00,06,19.70
2014,07,19,00,07,19.70
2014,07,19,00,08,19.70
2014,07,19,00,09,19.70
2014,07,19,00,10,19.70
2014,07,19,00,11,19.60
2014,07,19,00,12,19.60
2014,07,19,00,13,19.60
2014,07,19,00,14,19.60
2014,07,19,00,15,19.60
2014,07,19,00,16,19.60
2014,07,19,00,17,19.60
2014,07,19,00,18,19.60
2014,07,19,00,19,19.50
2014,07,19,00,20,19.50
2014,07,19,00,21,19.50
2014,07,19,00,22,19.50
2014,07,19,00,23,19.50
2014,07,19,00,24,19.50
2014,07,19,00,25,19.50
2014,07,19,00,26,19.50
2014,07,19,00,27,19.40
2014,07,19,00,28,19.40
2014,07,19,00,29,19.40
2014,07,19,00,30,19.40
2014,07,19,00,31,19.40
2014,07,19,00,32,19.40
2014,07,19,00,33,19.40
2014,07,19,00,34,19.40
2014,07,19,00,35,19.40
2014,07,19,00,36,19.40
2014,07,19,00,37,19.40
2014,07,19,00,38,19.40
2014,07,19,00,39,19.30
2014,07,19,00,40,19.30
2014,07,19,00,41,19.30
2014,07,19,00,42,19.30
2014,07,19,00,43,19.30
2014,07,19,00,44,19.30
2014,07,19,00,45,19.30
2014,07,19,00,46,19.30
2014,07,19,00,47,19.30
2014,07,19,00,48,19.20
2014,07,19,00,49,19.20
2014,07,19,00,50,19.20
2014,07,19,00,51,19.20
2014,07,19,00,52,19.20
2014,07,19,00,53,19.20
2014,07,19,00,54,19.20
2014,07,19,00,55,19.30
2014,07,19,00,56,19.30
2014,07,19,00,57,19.30
2014,07,19,00,58,19.30
2014,07,19,00,59,19.30
2014,07,19,01,00,19.30
2014,07,19,01,01,19.30
2014,07,19,01,02,19.20
2014,07,19,01,03,19.20
2014,07,19,01,04,19.20
2014,07,19,01,05,19.20
2014,07,19,01,06,19.20
2014,07,19,01,07,19.20
2014,07,19,01,08,19.20
2014,07,19,01,09,19.20
2014,07,19,01,10,19.20
2014,07,19,01,11,19.20
2014,07,19,01,12,19.20
2014,07,19,01,13,19.20
2014,07,19,01,14,19.20
2014,07,19,01,15,19.20
2014,07,19,01,16,19.20
2014,07,19,01,17,19.20
2014,07,19,01,18,19.20
2014,07,19,01,19,19.20
2014,07,19,01,20,19.20
2014,07,19,01,21,19.20
2014,07,19,01,22,19.20
2014,07,19,01,23,19.10
2014,07,19,01,24,19.10
2014,07,19,01,25,19.10
2014,07,19,01,26,19.10
2014,07,19,01,27,19.10
2014,07,19,01,28,19.10
2014,07,19,01,29,19.10
2014,07,19,01,30,19.10
2014,07,19,01,31,19.10
2014,07,19,01,32,19.10
2014,07,19,01,33,19.10
2014,07,19,01,34,19.10
2014,07,19,01,35,19.10
2014,07,19,01,36,19.10
2014,07,19,01,37,19.10
2014,07,19,01,38,19.10
2014,07,19,01,39,19.10
2014,07,19,01,40,19.10
2014,07,19,01,41,19.10
2014,07,19,01,42,19.10
2014,07,19,01,43,19.10
2014,07,19,01,44,19.10
2014,07,19,01,45,19.10
2014,07,19,01,46,19.10
2014,07,19,01,47,19.10
2014,07,19,01,48,19.10
2014,07,19,01,49,19.10
2014,07,19,01,50,19.10
2014,07,19,01,51,19.10
2014,07,19,01,52,19.10
2014,07,19,01,53,19.10
2014,07,19,01,54,19.10
2014,07,19,01,55,19.10
2014,07,19,01,56,19.10
2014,07,19,01,57,19.10
2014,07,19,01,58,19.10
2014,07,19,01,59,19.10
2014,07,19,02,00,19.10
2014,07,19,02,01,19.10
2014,07,19,02,02,19.10
2014,07,19,02,03,19.10
2014,07,19,02,04,19.10
2014,07,19,02,05,19.20
2014,07,19,02,06,19.20
2014,07,19,02,07,19.20
2014,07,19,02,08,19.20
2014,07,19,02,09,19.20
2014,07,19,02,10,19.20
2014,07,19,02,11,19.30
2014,07,19,02,12,19.30
2014,07,19,02,13,19.30
2014,07,19,02,14,19.30
2014,07,19,02,15,19.30
2014,07,19,02,16,19.30
2014,07,19,02,17,19.40
2014,07,19,02,18,19.40
2014,07,19,02,19,19.40
2014,07,19,02,20,19.40
2014,07,19,02,21,19.40
2014,07,19,02,22,19.40
2014,07,19,02,23,19.40
2014,07,19,02,24,19.40
2014,07,19,02,25,19.50
2014,07,19,02,26,19.50
2014,07,19,02,27,19.50
2014,07,19,02,28,19.50
2014,07,19,02,29,19.50
2014,07,19,02,30,19.50
2014,07,19,02,31,19.60
2014,07,19,02,32,19.60
2014,07,19,02,33,19.70
2014,07,19,02,34,19.70
2014,07,19,02,35,19.70
2014,07,19,02,36,19.80
2014,07,19,02,37,19.80
2014,07,19,02,38,19.80
2014,07,19,02,39,19.80
2014,07,19,02,40,19.80
2014,07,19,02,41,19.80
2014,07,19,02,42,19.80
2014,07,19,02,43,19.80
2014,07,19,02,44,19.80
2014,07,19,02,45,19.80
2014,07,19,02,46,19.90
2014,07,19,02,47,19.90
2014,07,19,02,48,19.90
2014,07,19,02,49,19.90
2014,07,19,02,50,19.90
2014,07,19,02,51,19.90
2014,07,19,02,52,19.90
2014,07,19,02,53,19.80
2014,07,19,02,54,19.80
2014,07,19,02,55,19.80
2014,07,19,02,56,19.80
2014,07,19,02,57,19.80
2014,07,19,02,58,19.80
2014,07,19,02,59,19.80
2014,07,19,03,00,19.80
2014,07,19,03,01,19.80
2014,07,19,03,02,19.80
2014,07,19,03,03,19.80
2014,07,19,03,04,19.80
2014,07,19,03,05,19.80
2014,07,19,03,06,19.80
2014,07,19,03,07,19.80
2014,07,19,03,08,19.80
2014,07,19,03,09,19.80
2014,07,19,03,10,19.80
2014,07,19,03,11,19.80
2014,07,19,03,12,19.70
2014,07,19,03,13,19.80
2014,07,19,03,14,19.70
2014,07,19,03,15,19.70
2014,07,19,03,16,19.70
2014,07,19,03,17,19.70
2014,07,19,03,18,19.70
2014,07,19,03,19,19.70
2014,07,19,03,20,19.70
2014,07,19,03,21,19.70
2014,07,19,03,22,19.70
2014,07,19,03,23,19.70
2014,07,19,03,24,19.60
2014,07,19,03,25,19.60
2014,07,19,03,26,19.60
2014,07,19,03,27,19.60
2014,07,19,03,28,19.60
2014,07,19,03,29,19.60
2014,07,19,03,30,19.60
2014,07,19,03,31,19.50
2014,07,19,03,32,19.50
2014,07,19,03,33,19.50
2014,07,19,03,34,19.40
2014,07,19,03,35,19.40
2014,07,19,03,36,19.40
2014,07,19,03,37,19.40
2014,07,19,03,38,19.40
2014,07,19,03,39,19.40
2014,07,19,03,40,19.40
2014,07,19,03,41,19.40
2014,07,19,03,42,19.30
2014,07,19,03,43,19.30
2014,07,19,03,44,19.30
2014,07,19,03,45,19.30
2014,07,19,03,46,19.30
2014,07,19,03,47,19.30
2014,07,19,03,48,19.30
2014,07,19,03,49,19.30
2014,07,19,03,50,19.30
2014,07,19,03,51,19.30
2014,07,19,03,52,19.30
2014,07,19,03,53,19.30
2014,07,19,03,54,19.30
2014,07,19,03,55,19.30
2014,07,19,03,56,19.30
2014,07,19,03,57,19.30
2014,07,19,03,58,19.20
2014,07,19,03,59,19.20
2014,07,19,04,00,19.20
2014,07,19,04,01,19.20
2014,07,19,04,02,19.20
2014,07,19,04,03,19.20
2014,07,19,04,04,19.20
2014,07,19,04,05,19.20
2014,07,19,04,06,19.20
2014,07,19,04,07,19.20
2014,07,19,04,08,19.20
2014,07,19,04,09,19.10
2014,07,19,04,10,19.10
2014,07,19,04,11,19.10
2014,07,19,04,12,19.10
2014,07,19,04,13,19.10
2014,07,19,04,14,19.10
2014,07,19,04,15,19.00
2014,07,19,04,16,19.00
2014,07,19,04,17,19.00
2014,07,19,04,18,18.90
2014,07,19,04,19,18.90
2014,07,19,04,20,18.90
2014,07,19,04,21,18.90
2014,07,19,04,22,18.90
2014,07,19,04,23,18.90
2014,07,19,04,24,18.90
2014,07,19,04,25,18.90
2014,07,19,04,26,18.80
2014,07,19,04,27,18.80
2014,07,19,04,28,18.80
2014,07,19,04,29,18.80
2014,07,19,04,30,18.80
2014,07,19,04,31,18.70
2014,07,19,04,32,18.70
2014,07,19,04,33,18.70
2014,07,19,04,34,18.70
2014,07,19,04,35,18.60
2014,07,19,04,36,18.60
2014,07,19,04,37,18.60
2014,07,19,04,38,18.50
2014,07,19,04,39,18.50
2014,07,19,04,40,18.50
2014,07,19,04,41,18.40
2014,07,19,04,42,18.40
2014,07,19,04,43,18.40
2014,07,19,04,44,18.40
2014,07,19,04,45,18.40
2014,07,19,04,46,18.40
2014,07,19,04,47,18.40
2014,07,19,04,48,18.40
2014,07,19,04,49,18.40
2014,07,19,04,50,18.40
2014,07,19,04,51,18.30
2014,07,19,04,52,18.30
2014,07,19,04,53,18.30
2014,07,19,04,54,18.30
2014,07,19,04,55,18.30
2014,07,19,04,56,18.30
2014,07,19,04,57,18.30
2014,07,19,04,58,18.30
2014,07,19,04,59,18.30
2014,07,19,05,00,18.30
2014,07,19,05,01,18.20
2014,07,19,05,02,18.20
2014,07,19,05,03,18.20
2014,07,19,05,04,18.20
2014,07,19,05,05,18.20
2014,07,19,05,06,18.20
2014,07,19,05,07,18.10
2014,07,19,05,08,18.10
2014,07,19,05,09,18.10
2014,07,19,05,10,18.10
2014,07,19,05,11,18.10
2014,07,19,05,12,18.10
2014,07,19,05,13,18.10
2014,07,19,05,14,18.10
2014,07,19,05,15,18.10
2014,07,19,05,16,18.10
2014,07,19,05,17,18.10
2014,07,19,05,18,18.10
2014,07,19,05,19,18.10
2014,07,19,05,20,18.10
2014,07,19,05,21,18.10
2014,07,19,05,22,18.10
2014,07,19,05,23,18.10
2014,07,19,05,24,18.10
2014,07,19,05,25,18.10
2014,07,19,05,26,18.10
2014,07,19,05,27,18.10
2014,07,19,05,28,18.10
2014,07,19,05,29,18.10
2014,07,19,05,30,18.10
2014,07,19,05,31,18.10
2014,07,19,05,32,18.10
2014,07,19,05,33,18.10
2014,07,19,05,34,18.10
2014,07,19,05,35,18.10
2014,07,19,05,36,18.10
2014,07,19,05,37,18.20
2014,07,19,05,38,18.20
2014,07,19,05,39,18.20
2014,07,19,05,40,18.20
2014,07,19,05,41,18.10
2014,07,19,05,42,18.10
2014,07,19,05,43,18.10
2014,07,19,05,44,18.10
2014,07,19,05,45,18.20
2014,07,19,05,46,18.20
2014,07,19,05,47,18.20
2014,07,19,05,48,18.20
2014,07,19,05,49,18.20
2014,07,19,05,50,18.20
2014,07,19,05,51,18.20
2014,07,19,05,52,18.30
2014,07,19,05,53,18.30
2014,07,19,05,54,18.30
2014,07,19,05,55,18.30
2014,07,19,05,56,18.30
2014,07,19,05,57,18.30
2014,07,19,05,58,18.30
2014,07,19,05,59,18.30
2014,07,19,06,00,18.30
2014,07,19,06,01,18.30
2014,07,19,06,02,18.30
2014,07,19,06,03,18.30
2014,07,19,06,04,18.30
2014,07,19,06,05,18.40
2014,07,19,06,06,18.40
2014,07,19,06,07,18.40
2014,07,19,06,08,18.40
2014,07,19,06,09,18.40
2014,07,19,06,10,18.40
2014,07,19,06,11,18.40
2014,07,19,06,12,18.40
2014,07,19,06,13,18.40
2014,07,19,06,14,18.40
2014,07,19,06,15,18.40
2014,07,19,06,16,18.40
2014,07,19,06,17,18.40
2014,07,19,06,18,18.40
2014,07,19,06,19,18.40
2014,07,19,06,20,18.40
2014,07,19,06,21,18.40
2014,07,19,06,22,18.40
2014,07,19,06,23,18.40
2014,07,19,06,24,18.40
2014,07,19,06,25,18.40
2014,07,19,06,26,18.40
2014,07,19,06,27,18.40
2014,07,19,06,28,18.40
2014,07,19,06,29,18.40
2014,07,19,06,30,18.40
2014,07,19,06,31,18.40
2014,07,19,06,32,18.40
2014,07,19,06,33,18.40
2014,07,19,06,34,18.40
2014,07,19,06,35,18.40
2014,07,19,06,36,18.40
2014,07,19,06,37,18.40
2014,07,19,06,38,18.40
2014,07,19,06,39,18.40
2014,07,19,06,40,18.40
2014,07,19,06,41,18.30
2014,07,19,06,42,18.30
2014,07,19,06,43,18.30
2014,07,19,06,44,18.30
2014,07,19,06,45,18.30
2014,07,19,06,46,18.20
2014,07,19,06,47,18.30
2014,07,19,06,48,18.30
2014,07,19,06,49,18.30
2014,07,19,06,50,18.30
2014,07,19,06,51,18.30
2014,07,19,06,52,18.30
2014,07,19,06,53,18.20
2014,07,19,06,54,18.20
2014,07,19,06,55,18.20
2014,07,19,06,56,18.10
2014,07,19,06,57,18.10
2014,07,19,06,58,18.10
2014,07,19,06,59,18.10
2014,07,19,07,00,18.10
2014,07,19,07,01,18.10
2014,07,19,07,02,18.10
2014,07,19,07,03,18.20
2014,07,19,07,04,18.20
2014,07,19,07,05,18.20
2014,07,19,07,06,18.20
2014,07,19,07,07,18.20
2014,07,19,07,08,18.20
2014,07,19,07,09,18.20
2014,07,19,07,10,18.20
2014,07,19,07,11,18.20
2014,07,19,07,12,18.20
2014,07,19,07,13,18.20
2014,07,19,07,14,18.20
2014,07,19,07,15,18.10
2014,07,19,07,16,18.10
2014,07,19,07,17,18.10
2014,07,19,07,18,18.10
2014,07,19,07,19,18.10
2014,07,19,07,20,18.10
2014,07,19,07,21,18.10
2014,07,19,07,22,18.10
2014,07,19,07,23,18.10
2014,07,19,07,24,18.10
2014,07,19,07,25,18.10
2014,07,19,07,26,18.10
2014,07,19,07,27,18.10
2014,07,19,07,28,18.10
2014,07,19,07,29,18.10
2014,07,19,07,30,18.10
2014,07,19,07,31,18.10
2014,07,19,07,32,18.10
2014,07,19,07,33,18.10
2014,07,19,07,34,18.10
2014,07,19,07,35,18.10
2014,07,19,07,36,18.10
2014,07,19,07,37,18.10
2014,07,19,07,38,18.20
2014,07,19,07,39,18.20
2014,07,19,07,40,18.20
2014,07,19,07,41,18.20
2014,07,19,07,42,18.20
2014,07,19,07,43,18.20
2014,07,19,07,44,18.20
2014,07,19,07,45,18.20
2014,07,19,07,46,18.20
2014,07,19,07,47,18.20
2014,07,19,07,48,18.20
2014,07,19,07,49,18.20
2014,07,19,07,50,18.20
2014,07,19,07,51,18.20
2014,07,19,07,52,18.20
2014,07,19,07,53,18.20
2014,07,19,07,54,18.20
2014,07,19,07,55,18.20
2014,07,19,07,56,18.20
2014,07,19,07,57,18.20
2014,07,19,07,58,18.20
2014,07,19,07,59,18.30
2014,07,19,08,00,18.30
2014,07,19,08,01,18.30
2014,07,19,08,02,18.30
2014,07,19,08,03,18.30
2014,07,19,08,04,18.30
2014,07,19,08,05,18.30
2014,07,19,08,06,18.30
2014,07,19,08,07,18.30
2014,07,19,08,08,18.30
2014,07,19,08,09,18.30
2014,07,19,08,10,18.30
2014,07,19,08,11,18.30
2014,07,19,08,12,18.30
2014,07,19,08,13,18.30
2014,07,19,08,14,18.30
2014,07,19,08,15,18.30
2014,07,19,08,16,18.30
2014,07,19,08,17,18.30
2014,07,19,08,18,18.30
2014,07,19,08,19,18.30
2014,07,19,08,20,18.30
2014,07,19,08,21,18.30
2014,07,19,08,22,18.30
2014,07,19,08,23,18.30
2014,07,19,08,24,18.40
2014,07,19,08,25,18.40
2014,07,19,08,26,18.40
2014,07,19,08,27,18.40
2014,07,19,08,28,18.40
2014,07,19,08,29,18.30
2014,07,19,08,30,18.30
2014,07,19,08,31,18.30
2014,07,19,08,32,18.30
2014,07,19,08,33,18.30
2014,07,19,08,34,18.40
2014,07,19,08,35,18.40
2014,07,19,08,36,18.40
2014,07,19,08,37,18.40
2014,07,19,08,38,18.40
2014,07,19,08,39,18.40
2014,07,19,08,40,18.40
2014,07,19,08,41,18.40
2014,07,19,08,42,18.40
2014,07,19,08,43,18.50
2014,07,19,08,44,18.50
2014,07,19,08,45,18.50
2014,07,19,08,46,18.60
2014,07,19,08,47,18.60
2014,07,19,08,48,18.60
2014,07,19,08,49,18.60
2014,07,19,08,50,18.60
2014,07,19,08,51,18.60
2014,07,19,08,52,18.60
2014,07,19,08,53,18.70
2014,07,19,08,54,18.70
2014,07,19,08,55,18.70
2014,07,19,08,56,18.70
2014,07,19,08,57,18.70
2014,07,19,08,58,18.70
2014,07,19,08,59,18.70
2014,07,19,09,00,18.80
2014,07,19,09,01,18.80
2014,07,19,09,02,18.80
2014,07,19,09,03,18.80
2014,07,19,09,04,18.80
2014,07,19,09,05,18.80
2014,07,19,09,06,18.80
2014,07,19,09,07,18.80
2014,07,19,09,08,18.90
2014,07,19,09,09,18.90
2014,07,19,09,10,18.90
2014,07,19,09,11,18.90
2014,07,19,09,12,18.90
2014,07,19,09,13,19.00
2014,07,19,09,14,19.00
2014,07,19,09,15,19.00
2014,07,19,09,16,19.10
2014,07,19,09,17,19.10
2014,07,19,09,18,19.10
2014,07,19,09,19,19.10
2014,07,19,09,20,19.10
2014,07,19,09,21,19.10
2014,07,19,09,22,19.10
2014,07,19,09,23,19.10
2014,07,19,09,24,19.10
2014,07,19,09,25,19.10
2014,07,19,09,26,19.10
2014,07,19,09,27,19.10
2014,07,19,09,28,19.10
2014,07,19,09,29,19.10
2014,07,19,09,30,19.20
2014,07,19,09,31,19.20
2014,07,19,09,32,19.20
2014,07,19,09,33,19.20
2014,07,19,09,34,19.20
2014,07,19,09,35,19.20
2014,07,19,09,36,19.20
2014,07,19,09,37,19.20
2014,07,19,09,38,19.20
2014,07,19,09,39,19.20
2014,07,19,09,40,19.20
2014,07,19,09,41,19.20
2014,07,19,09,42,19.20
2014,07,19,09,43,19.20
2014,07,19,09,44,19.20
2014,07,19,09,45,19.20
2014,07,19,09,46,19.20
2014,07,19,09,47,19.20
2014,07,19,09,48,19.20
2014,07,19,09,49,19.20
2014,07,19,09,50,19.20
2014,07,19,09,51,19.20
2014,07,19,09,52,19.20
2014,07,19,09,53,19.20
2014,07,19,09,54,19.20
2014,07,19,09,55,19.10
2014,07,19,09,56,19.10
2014,07,19,09,57,19.20
2014,07,19,09,58,19.10
2014,07,19,09,59,19.10
2014,07,19,10,00,19.10
2014,07,19,10,01,19.10
2014,07,19,10,02,19.10
2014,07,19,10,03,19.10
2014,07,19,10,04,19.10
2014,07,19,10,05,19.10
2014,07,19,10,06,19.10
2014,07,19,10,07,19.10
2014,07,19,10,08,19.10
2014,07,19,10,09,19.10
2014,07,19,10,10,19.10
2014,07,19,10,11,19.10
2014,07,19,10,12,19.10
2014,07,19,10,13,19.10
2014,07,19,10,14,19.10
2014,07,19,10,15,19.20
2014,07,19,10,16,19.20
2014,07,19,10,17,19.20
2014,07,19,10,18,19.30
2014,07,19,10,19,19.30
2014,07,19,10,20,19.30
2014,07,19,10,21,19.30
2014,07,19,10,22,19.30
2014,07,19,10,23,19.30
2014,07,19,10,24,19.40
2014,07,19,10,25,19.40
2014,07,19,10,26,19.40
2014,07,19,10,27,19.50
2014,07,19,10,28,19.50
2014,07,19,10,29,19.50
2014,07,19,10,30,19.50
2014,07,19,10,31,19.50
2014,07,19,10,32,19.60
2014,07,19,10,33,19.60
2014,07,19,10,34,19.60
2014,07,19,10,35,19.60
2014,07,19,10,36,19.60
2014,07,19,10,37,19.60
2014,07,19,10,38,19.70
2014,07,19,10,39,19.70
2014,07,19,10,40,19.70
2014,07,19,10,41,19.70
2014,07,19,10,42,19.70
2014,07,19,10,43,19.80
2014,07,19,10,44,19.80
2014,07,19,10,45,19.80
2014,07,19,10,46,19.80
2014,07,19,10,47,19.90
2014,07,19,10,48,19.90
2014,07,19,10,49,19.90
2014,07,19,10,50,20.00
2014,07,19,10,51,20.00
2014,07,19,10,52,20.00
2014,07,19,10,53,20.00
2014,07,19,10,54,20.00
2014,07,19,10,55,20.00
2014,07,19,10,56,20.00
2014,07,19,10,57,20.10
2014,07,19,10,58,20.10
2014,07,19,10,59,20.10
2014,07,19,11,00,20.10
2014,07,19,11,01,20.10
2014,07,19,11,02,20.20
2014,07,19,11,03,20.20
2014,07,19,11,04,20.30
2014,07,19,11,05,20.30
2014,07,19,11,06,20.30
2014,07,19,11,07,20.30
2014,07,19,11,08,20.30
2014,07,19,11,09,20.30
2014,07,19,11,10,20.30
2014,07,19,11,11,20.30
2014,07,19,11,12,20.40
2014,07,19,11,13,20.40
2014,07,19,11,14,20.40
2014,07,19,11,15,20.40
2014,07,19,11,16,20.40
2014,07,19,11,17,20.40
2014,07,19,11,18,20.40
2014,07,19,11,19,20.40
2014,07,19,11,20,20.50
2014,07,19,11,21,20.50
2014,07,19,11,22,20.60
2014,07,19,11,23,20.70
2014,07,19,11,24,20.70
2014,07,19,11,25,20.80
2014,07,19,11,26,20.90
2014,07,19,11,27,21.10
2014,07,19,11,28,21.20
2014,07,19,11,29,21.30
2014,07,19,11,30,21.40
2014,07,19,11,31,21.50
2014,07,19,11,32,21.60
2014,07,19,11,33,21.60
2014,07,19,11,34,21.50
2014,07,19,11,35,21.50
2014,07,19,11,36,21.50
2014,07,19,11,37,21.50
2014,07,19,11,38,21.60
2014,07,19,11,39,21.60
2014,07,19,11,40,21.50
2014,07,19,11,41,21.40
2014,07,19,11,42,21.40
2014,07,19,11,43,21.40
2014,07,19,11,44,21.40
2014,07,19,11,45,21.30
2014,07,19,11,46,21.30
2014,07,19,11,47,21.30
2014,07,19,11,48,21.20
2014,07,19,11,49,21.20
2014,07,19,11,50,21.30
2014,07,19,11,51,21.50
2014,07,19,11,52,21.60
2014,07,19,11,53,21.70
2014,07,19,11,54,21.70
2014,07,19,11,55,21.60
2014,07,19,11,56,21.60
2014,07,19,11,57,21.70
2014,07,19,11,58,21.70
2014,07,19,11,59,21.70
2014,07,19,12,00,21.60
2014,07,19,12,01,21.60
2014,07,19,12,02,21.60
2014,07,19,12,03,21.60
2014,07,19,12,04,21.60
2014,07,19,12,05,21.60
2014,07,19,12,06,21.70
2014,07,19,12,07,21.60
2014,07,19,12,08,21.60
2014,07,19,12,09,21.60
2014,07,19,12,10,21.70
2014,07,19,12,11,21.70
2014,07,19,12,12,21.60
2014,07,19,12,13,21.60
2014,07,19,12,14,21.60
2014,07,19,12,15,21.60
2014,07,19,12,16,21.50
2014,07,19,12,17,21.50
2014,07,19,12,18,21.60
2014,07,19,12,19,21.60
2014,07,19,12,20,21.70
2014,07,19,12,21,21.70
2014,07,19,12,22,21.60
2014,07,19,12,23,21.60
2014,07,19,12,24,21.60
2014,07,19,12,25,21.60
2014,07,19,12,26,21.60
2014,07,19,12,27,21.60
2014,07,19,12,28,21.70
2014,07,19,12,29,21.70
2014,07,19,12,30,21.80
2014,07,19,12,31,21.80
2014,07,19,12,32,21.80
2014,07,19,12,33,21.90
2014,07,19,12,34,22.10
2014,07,19,12,35,22.20
2014,07,19,12,36,22.30
2014,07,19,12,37,22.40
2014,07,19,12,38,22.40
2014,07,19,12,39,22.50
2014,07,19,12,40,22.50
2014,07,19,12,41,22.60
2014,07,19,12,42,22.80
2014,07,19,12,43,23.00
2014,07,19,12,44,23.10
2014,07,19,12,45,23.00
2014,07,19,12,46,23.00
2014,07,19,12,47,23.20
2014,07,19,12,48,23.30
2014,07,19,12,49,23.30
2014,07,19,12,50,23.30
2014,07,19,12,51,23.20
2014,07,19,12,52,23.20
2014,07,19,12,53,23.20
2014,07,19,12,54,23.20
2014,07,19,12,55,23.10
2014,07,19,12,56,23.10
2014,07,19,12,57,23.00
2014,07,19,12,58,23.00
2014,07,19,12,59,23.00
2014,07,19,13,00,23.00
2014,07,19,13,01,23.10
2014,07,19,13,02,23.20
2014,07,19,13,03,23.40
2014,07,19,13,04,23.40
2014,07,19,13,05,23.30
2014,07,19,13,06,23.30
2014,07,19,13,07,23.30
2014,07,19,13,08,23.30
2014,07,19,13,09,23.40
2014,07,19,13,10,23.50
2014,07,19,13,11,23.60
2014,07,19,13,12,23.50
2014,07,19,13,13,23.50
2014,07,19,13,14,23.50
2014,07,19,13,15,23.50
2014,07,19,13,16,23.60
2014,07,19,13,17,23.60
2014,07,19,13,18,23.60
2014,07,19,13,19,23.50
2014,07,19,13,20,23.60
2014,07,19,13,21,23.60
2014,07,19,13,22,23.60
2014,07,19,13,23,23.60
2014,07,19,13,24,23.60
2014,07,19,13,25,23.60
2014,07,19,13,26,23.60
2014,07,19,13,27,23.50
2014,07,19,13,28,23.40
2014,07,19,13,29,23.40
2014,07,19,13,30,23.50
2014,07,19,13,31,23.60
2014,07,19,13,32,23.80
2014,07,19,13,33,24.00
2014,07,19,13,34,24.10
2014,07,19,13,35,24.10
2014,07,19,13,36,24.00
2014,07,19,13,37,24.00
2014,07,19,13,38,24.00
2014,07,19,13,39,23.90
2014,07,19,13,40,23.80
2014,07,19,13,41,23.70
2014,07,19,13,42,23.70
2014,07,19,13,43,23.60
2014,07,19,13,44,23.50
2014,07,19,13,45,23.60
2014,07,19,13,46,23.70
2014,07,19,13,47,23.80
2014,07,19,13,48,24.00
2014,07,19,13,49,24.10
2014,07,19,13,50,24.10
2014,07,19,13,51,24.00
2014,07,19,13,52,23.90
2014,07,19,13,53,23.80
2014,07,19,13,54,23.70
2014,07,19,13,55,23.70
2014,07,19,13,56,23.80
2014,07,19,13,57,23.80
2014,07,19,13,58,23.80
2014,07,19,13,59,23.90
2014,07,19,14,00,24.00
2014,07,19,14,01,24.10
2014,07,19,14,02,24.10
2014,07,19,14,03,24.20
2014,07,19,14,04,24.10
2014,07,19,14,05,23.90
2014,07,19,14,06,23.80
2014,07,19,14,07,23.70
2014,07,19,14,08,23.60
2014,07,19,14,09,23.60
2014,07,19,14,10,23.70
2014,07,19,14,11,23.80
2014,07,19,14,12,23.90
2014,07,19,14,13,23.80
2014,07,19,14,14,23.80
2014,07,19,14,15,23.90
2014,07,19,14,16,23.70
2014,07,19,14,17,23.60
2014,07,19,14,18,23.50
2014,07,19,14,19,23.40
2014,07,19,14,20,23.40
2014,07,19,14,21,23.40
2014,07,19,14,22,23.30
2014,07,19,14,23,23.20
2014,07,19,14,24,23.30
2014,07,19,14,25,23.30
2014,07,19,14,26,23.40
2014,07,19,14,27,23.30
2014,07,19,14,28,23.40
2014,07,19,14,29,23.50
2014,07,19,14,30,23.50
2014,07,19,14,31,23.40
2014,07,19,14,32,23.40
2014,07,19,14,33,23.40
2014,07,19,14,34,23.50
2014,07,19,14,35,23.50
2014,07,19,14,36,23.50
2014,07,19,14,37,23.40
2014,07,19,14,38,23.40
2014,07,19,14,39,23.40
2014,07,19,14,40,23.40
2014,07,19,14,41,23.50
2014,07,19,14,42,23.40
2014,07,19,14,43,23.30
2014,07,19,14,44,23.30
2014,07,19,14,45,23.20
2014,07,19,14,46,23.20
2014,07,19,14,47,23.20
2014,07,19,14,48,23.10
2014,07,19,14,49,23.10
2014,07,19,14,50,23.20
2014,07,19,14,51,23.20
2014,07,19,14,52,23.20
2014,07,19,14,53,23.20
2014,07,19,14,54,23.20
2014,07,19,14,55,23.20
2014,07,19,14,56,23.20
2014,07,19,14,57,23.20
2014,07,19,14,58,23.30
2014,07,19,14,59,23.30
2014,07,19,15,00,23.30
2014,07,19,15,01,23.30
2014,07,19,15,02,23.20
2014,07,19,15,03,23.20
2014,07,19,15,04,23.20
2014,07,19,15,05,23.20
2014,07,19,15,06,23.20
2014,07,19,15,07,23.30
2014,07,19,15,08,23.40
2014,07,19,15,09,23.40
2014,07,19,15,10,23.30
2014,07,19,15,11,23.40
2014,07,19,15,12,23.40
2014,07,19,15,13,23.40
2014,07,19,15,14,23.40
2014,07,19,15,15,23.30
2014,07,19,15,16,23.30
2014,07,19,15,17,23.30
2014,07,19,15,18,23.40
2014,07,19,15,19,23.40
2014,07,19,15,20,23.40
2014,07,19,15,21,23.50
2014,07,19,15,22,23.40
2014,07,19,15,23,23.40
2014,07,19,15,24,23.30
2014,07,19,15,25,23.30
2014,07,19,15,26,23.30
2014,07,19,15,27,23.30
2014,07,19,15,28,23.30
2014,07,19,15,29,23.30
2014,07,19,15,30,23.30
2014,07,19,15,31,23.20
2014,07,19,15,32,23.10
2014,07,19,15,33,23.10
2014,07,19,15,34,23.10
2014,07,19,15,35,23.10
2014,07,19,15,36,23.10
2014,07,19,15,37,23.10
2014,07,19,15,38,23.10
2014,07,19,15,39,23.10
2014,07,19,15,40,23.20
2014,07,19,15,41,23.20
2014,07,19,15,42,23.10
2014,07,19,15,43,23.10
2014,07,19,15,44,23.00
2014,07,19,15,45,22.90
2014,07,19,15,46,22.90
2014,07,19,15,47,23.00
2014,07,19,15,48,22.90
2014,07,19,15,49,22.90
2014,07,19,15,50,22.90
2014,07,19,15,51,22.90
2014,07,19,15,52,22.90
2014,07,19,15,53,22.90
2014,07,19,15,54,22.80
2014,07,19,15,55,22.70
2014,07,19,15,56,22.70
2014,07,19,15,57,22.70
2014,07,19,15,58,22.70
2014,07,19,15,59,22.70
2014,07,19,16,00,22.70
2014,07,19,16,01,22.70
2014,07,19,16,02,22.70
2014,07,19,16,03,22.70
2014,07,19,16,04,22.70
2014,07,19,16,05,22.60
2014,07,19,16,06,22.70
2014,07,19,16,07,22.70
2014,07,19,16,08,22.70
2014,07,19,16,09,22.70
2014,07,19,16,10,22.60
2014,07,19,16,11,22.60
2014,07,19,16,12,22.60
2014,07,19,16,13,22.50
2014,07,19,16,14,22.50
2014,07,19,16,15,22.50
2014,07,19,16,16,22.40
2014,07,19,16,17,22.40
2014,07,19,16,18,22.40
2014,07,19,16,19,22.50
2014,07,19,16,20,22.50
2014,07,19,16,21,22.60
2014,07,19,16,22,22.60
2014,07,19,16,23,22.60
2014,07,19,16,24,22.60
2014,07,19,16,25,22.60
2014,07,19,16,26,22.60
2014,07,19,16,27,22.60
2014,07,19,16,28,22.50
2014,07,19,16,29,22.50
2014,07,19,16,30,22.50
2014,07,19,16,31,22.60
2014,07,19,16,32,22.60
2014,07,19,16,33,22.50
2014,07,19,16,34,22.50
2014,07,19,16,35,22.50
2014,07,19,16,36,22.50
2014,07,19,16,37,22.50
2014,07,19,16,38,22.50
2014,07,19,16,39,22.50
2014,07,19,16,40,22.40
2014,07,19,16,41,22.50
2014,07,19,16,42,22.50
2014,07,19,16,43,22.60
2014,07,19,16,44,22.60
2014,07,19,16,45,22.60
2014,07,19,16,46,22.60
2014,07,19,16,47,22.60
2014,07,19,16,48,22.60
2014,07,19,16,49,22.60
2014,07,19,16,50,22.60
2014,07,19,16,51,22.60
2014,07,19,16,52,22.60
2014,07,19,16,53,22.70
2014,07,19,16,54,22.80
2014,07,19,16,55,22.90
2014,07,19,16,56,22.90
2014,07,19,16,57,22.90
2014,07,19,16,58,23.00
2014,07,19,16,59,23.00
2014,07,19,17,00,23.00
2014,07,19,17,01,23.10
2014,07,19,17,02,23.10
2014,07,19,17,03,23.10
2014,07,19,17,04,23.20
2014,07,19,17,05,23.30
2014,07,19,17,06,23.20
2014,07,19,17,07,23.20
2014,07,19,17,08,23.00
2014,07,19,17,09,22.90
2014,07,19,17,10,22.90
2014,07,19,17,11,23.00
2014,07,19,17,12,23.00
2014,07,19,17,13,23.00
2014,07,19,17,14,23.10
2014,07,19,17,15,23.10
2014,07,19,17,16,23.10
2014,07,19,17,17,23.20
2014,07,19,17,18,23.40
2014,07,19,17,19,23.50